Home > Weather > Dessau-Rosslau > Past weeks

Flag for Germany Weather for the Past 2 Weeks in Dessau-Rosslau, Saxony-Anhalt, Germany

Now
48 °F

Sunny.


Feels Like: 43 °F
Forecast: 42 / 52 °F
Wind: 12 mph from South

Location: Leipzig-Schkeuditz

Current Time: Feb 7, 2016 at 4:41:30 PM

Latest Report: Feb 7, 2016 at 4:20 PM


Visibility: 10 mi

Pressure: 29.59 "Hg

Humidity: 62%

Dew point: 36 °F

Location of Dessau-RosslauLocation

Historic Weather in Dessau-Rosslau — Graph

°F

Dessau-Rosslau Temperature Yesterday

Maximum temperature yesterday: 54 °F (at 2:20 PM)
Minimum temperature yesterday: 41 °F (at 12:20 AM)
Average temperature yesterday: 46 °F

High & Low Weather Summary for the Past Weeks

 TemperatureHumidityPressure
High54 °F (Jan 26, 12:50 PM)100% (Jan 23, 5:50 PM)30.51 "Hg (Jan 23, 5:50 PM)
Low32 °F (Jan 23, 9:50 PM)53% (Feb 3, 3:50 PM)29.59 "Hg (Feb 7, 11:50 AM)
Average43 °F81%30.06 "Hg
* Reported Jan 23 3:20 PM — Feb 7 3:20 PM, Dessau-Rosslau, Weather by CustomWeather, © 2016

Note: Actual official high and low records may vary slightly from our data, if they occured in-between our weather recording intervals... More about our weather records

Advertising

Dessau-Rosslau Weather History for the Previous 24 Hours

 ConditionsComfort  
Time TempWeatherWind HumidityBarometerVisibility
3:20 PM
Sun, Feb 7
50 °FSunny.12 mph62%29.59 "Hg10 mi
2:50 PM50 °FSunny.14 mph62%29.59 "Hg10 mi
2:20 PM50 °FSunny.12 mph62%29.59 "Hg10 mi
1:50 PM50 °FSunny.16 mph62%29.59 "Hg10 mi
1:20 PM48 °FBroken clouds.14 mph66%29.59 "HgN/A
12:50 PM48 °FBroken clouds.13 mph66%29.59 "HgN/A
12:20 PM48 °FSunny.13 mph66%29.59 "Hg10 mi
11:50 AM48 °FSunny.14 mph66%29.59 "Hg10 mi
11:20 AM48 °FSunny.17 mph66%29.62 "Hg10 mi
10:50 AM48 °FSunny.13 mph66%29.62 "Hg10 mi
10:20 AM46 °FSunny.13 mph66%29.62 "Hg10 mi
9:50 AM46 °FSunny.14 mph66%29.65 "Hg10 mi
9:20 AM45 °FSunny.14 mph71%29.65 "Hg10 mi
8:50 AM43 °FSunny.14 mph71%29.65 "Hg10 mi
8:20 AM43 °FSunny.13 mph71%29.65 "Hg10 mi
7:50 AM41 °FSunny.12 mph76%29.65 "Hg10 mi
7:20 AM41 °FClear.13 mph76%29.65 "Hg10 mi
6:50 AM41 °FClear.14 mph76%29.65 "Hg10 mi
6:20 AM41 °FClear.14 mph76%29.65 "Hg10 mi
5:50 AM41 °FClear.12 mph76%29.65 "Hg10 mi
5:20 AM41 °FClear.12 mph76%29.68 "Hg10 mi
4:20 AM37 °FClear.9 mph81%29.71 "Hg10 mi
3:50 AM39 °FClear.14 mph81%29.71 "Hg10 mi
3:20 AM37 °FClear.9 mph87%29.71 "Hg10 mi
2:20 AM39 °FClear.12 mph81%29.71 "Hg10 mi
1:50 AM39 °FClear.9 mph87%29.71 "Hg10 mi
1:20 AM41 °FClear.8 mph81%29.74 "Hg10 mi
12:50 AM39 °FClear.9 mph87%29.74 "Hg10 mi
12:20 AM41 °FClear.13 mph81%29.77 "Hg10 mi
11:50 PM
Sat, Feb 6
43 °FClear.13 mph81%29.77 "Hg10 mi
11:20 PM43 °FClear.14 mph81%29.77 "Hg10 mi
10:50 PM43 °FClear.14 mph81%29.80 "Hg10 mi
9:50 PM43 °FClear.12 mph81%29.80 "Hg10 mi
9:20 PM45 °FClear.14 mph76%29.80 "Hg10 mi
8:50 PM45 °FClear.14 mph76%29.83 "Hg10 mi
8:20 PM46 °FClear.14 mph71%29.83 "Hg10 mi
7:50 PM46 °FClear.15 mph71%29.83 "Hg10 mi
7:20 PM48 °FClear.16 mph66%29.83 "Hg10 mi
6:50 PM48 °FClear.17 mph71%29.86 "Hg10 mi
6:20 PM48 °FClear.14 mph71%29.86 "Hg10 mi
5:50 PM48 °FClear.13 mph71%29.86 "Hg10 mi
5:20 PM50 °FClear.14 mph71%29.86 "Hg10 mi
4:50 PM52 °FSunny.14 mph67%29.86 "Hg10 mi
4:20 PM52 °FSunny.14 mph67%29.86 "Hg10 mi
Weather by CustomWeather, © 2016

See weather overviewHow to use our weather pages